Lid_Strength_Index
3 3 3 3 3 2 2 3 3 3 2 2 2 3 3 3 3 5 8 5 5 3 2 5 6 7 8 9 8 8 11 12 12 12 11 8 9 7 6 7 6 5 6 4 2
3 3 3 3 3 3 2 2 2 2 2 2 2 3 3 3 5 7 3 3 3 2 6 7 8 8 9 10 9 9 12 12 10 10 10 9 9 9 9 9 8 7 6 2 2
3 3 3 3 3 3 3 2 2 2 2 2 3 3 3 4 7 7 2 1 2 2 6 7 7 8 10 10 10 11 12 11 10 9 9 9 10 9 10 10 8 7 6 6 3
3 3 3 3 3 3 3 3 2 2 2 2 3 3 3 5 11 5 -1 0 1 3 7 9 9 9 10 11 10 12 10 11 10 10 9 10 9 9 9 8 6 6 5 6 6
3 3 3 4 4 4 3 3 3 2 2 3 3 3 4 7 8 4 -1 0 2 4 8 10 11 10 10 10 11 12 10 10 9 9 9 9 10 10 9 7 6 6 6 7 6
3 3 4 4 4 4 4 3 3 3 3 2 3 3 6 10 4 3 1 1 3 5 8 9 10 9 9 9 10 9 9 8 8 8 9 10 9 10 7 6 6 7 6 5 5
4 4 4 4 4 4 4 3 3 3 2 2 3 4 7 7 3 1 2 3 3 5 8 9 9 9 9 10 8 9 10 8 8 8 9 9 10 10 6 6 7 6 5 4 3
4 4 4 4 4 4 4 4 3 3 2 2 2 4 8 4 3 4 2 4 3 5 7 7 7 8 9 8 9 9 9 11 8 9 9 9 10 7 6 7 7 6 5 4 3
4 5 4 4 4 4 4 4 4 3 2 2 3 6 8 3 5 4 2 5 5 6 6 7 8 9 8 9 10 10 12 11 10 8 9 10 9 6 6 7 6 5 4 4 3
4 4 5 4 4 4 4 4 4 3 3 3 4 8 6 6 4 3 2 4 6 7 8 9 8 10 10 10 13 12 12 11 10 9 8 9 8 6 6 7 5 4 4 4 4
4 4 4 4 4 4 5 6 6 7 6 6 6 7 5 3 2 3 3 3 5 6 9 9 11 12 10 9 9 10 11 11 9 7 9 8 8 7 6 6 6 5 4 4 4
4 4 4 5 4 5 6 8 7 6 8 6 5 5 4 3 6 5 3 6 7 9 8 10 12 10 9 9 10 10 11 10 8 8 8 8 8 7 6 6 5 6 5 5 4
5 5 5 5 5 6 7 7 5 5 8 6 5 5 5 4 6 5 5 7 8 9 10 11 11 9 10 10 11 10 10 10 10 8 8 8 9 8 7 6 5 5 4 4 4
5 5 5 5 7 7 8 5 5 5 10 9 7 5 4 4 6 3 4 6 8 10 10 10 8 10 10 11 10 12 8 8 9 10 12 9 13 9 7 7 6 6 5 5 4
5 5 5 5 7 8 7 5 5 5 18 8 7 2 4 6 5 6 4 6 8 9 9 10 9 9 10 10 9 10 8 8 8 10 10 10 11 9 8 9 8 7 6 5 4
5 4 5 6 6 6 5 5 6 12 18 10 7 7 7 6 6 6 6 5 6 8 8 9 7 8 8 7 8 6 8 9 9 10 13 10 11 11 9 9 8 6 6 6 6
5 5 5 5 8 6 6 7 12 16 8 11 9 8 8 8 7 7 8 9 9 11 11 9 9 8 7 9 7 8 10 13 14 14 14 11 12 10 8 7 7 7 7 6 6
4 5 5 5 5 5 6 9 16 11 11 8 8 8 10 8 8 8 8 10 8 9 11 12 13 9 7 8 9 9 10 13 18 16 14 12 14 11 8 7 6 7 6 6 6
4 5 7 6 5 5 9 14 13 11 9 9 9 11 10 9 8 9 9 9 8 8 11 12 12 8 7 7 7 10 12 9 13 13 15 12 11 9 8 8 8 8 7 8 7
5 7 7 5 4 6 10 12 10 8 8 8 11 10 12 10 10 10 10 8 9 8 7 9 13 9 8 7 7 9 8 13 12 18 19 14 13 12 10 9 8 8 8 8 7
5 9 5 4 4 7 12 10 9 6 7 10 11 11 11 11 10 12 11 9 8 8 7 8 10 11 9 10 10 10 11 11 12 13 17 17 14 9 9 8 8 8 8 8 8
5 10 4 3 8 8 10 8 7 7 6 7 8 9 10 10 11 12 12 10 7 7 9 8 10 13 12 9 8 9 10 10 14 16 14 14 14 9 8 7 7 8 8 8 8
6 7 3 3 12 11 8 8 7 8 8 9 9 8 8 11 13 11 10 8 7 8 9 9 12 15 14 11 9 11 10 10 11 12 15 17 14 8 8 8 8 8 8 8 8
6 10 6 5 6 9 10 10 10 7 8 8 9 8 9 11 9 11 11 8 7 7 7 8 11 13 16 13 11 13 11 10 11 15 14 15 12 10 9 8 8 8 9 8 8
5 8 6 11 9 9 9 9 11 10 8 8 10 10 11 13 12 12 10 9 8 7 8 8 12 11 11 11 10 11 11 11 12 11 14 11 12 9 8 7 8 7 8 8 8
7 8 6 8 7 9 9 10 11 10 9 10 11 10 10 12 11 12 10 10 10 8 9 9 13 11 13 10 10 12 10 10 10 10 11 10 11 7 6 6 7 8 9 9 8
3 3 5 7 8 9 10 10 10 9 8 8 8 10 11 9 7 7 7 8 8 9 11 11 12 13 14 12 12 14 11 10 10 9 9 12 9 7 8 7 7 8 8 9 8